TimeAKST,TemperatureF,Dew PointF,Humidity,Sea Level PressureIn,VisibilityMPH,Wind Direction,Wind SpeedMPH,Gust SpeedMPH,PrecipitationIn,Events,Conditions,WindDirDegrees,DateUTC
12:44 AM,41.0,37.4,87,29.95,10.0,Variable,4.6,-,0.00,,Overcast,0,2013-02-03 09:44:00
12:53 AM,41.0,37.9,89,29.95,10.0,Variable,4.6,-,0.01,Rain,Light Rain,0,2013-02-03 09:53:00
1:12 AM,41.0,37.4,87,29.94,10.0,Variable,4.6,-,0.00,,Overcast,0,2013-02-03 10:12:00
1:53 AM,42.1,37.0,82,29.92,10.0,Variable,3.5,-,0.00,,Overcast,0,2013-02-03 10:53:00
2:37 AM,41.0,37.4,87,29.90,10.0,Variable,5.8,-,0.01,Rain,Light Rain,0,2013-02-03 11:37:00
3:53 AM,41.0,37.0,86,29.86,10.0,Variable,5.8,-,0.03,Rain,Light Rain,0,2013-02-03 12:53:00
4:53 AM,39.9,37.0,89,29.83,9.0,SSE,8.1,-,0.03,Rain,Light Rain,160,2013-02-03 13:53:00
5:04 AM,39.2,37.4,93,29.82,7.0,Variable,5.8,-,0.01,Rain,Light Rain,0,2013-02-03 14:04:00
5:53 AM,39.9,37.0,89,29.81,8.0,SSE,8.1,-,0.09,Rain,Rain,160,2013-02-03 14:53:00
6:53 AM,39.0,36.0,89,29.77,6.0,Variable,5.8,-,0.09,Rain,Rain,0,2013-02-03 15:53:00
7:53 AM,39.9,36.0,86,29.76,10.0,Variable,6.9,16.1,0.05,Rain,Light Rain,0,2013-02-03 16:53:00
8:53 AM,39.0,36.0,89,29.75,8.0,South,8.1,-,0.05,Rain,Light Rain,180,2013-02-03 17:53:00
9:53 AM,39.0,36.0,89,29.76,4.0,South,8.1,-,0.11,Rain,Rain,170,2013-02-03 18:53:00
10:53 AM,37.0,34.0,89,29.78,4.0,Variable,6.9,-,0.13,Rain,Light Rain,0,2013-02-03 19:53:00
11:21 AM,37.4,35.6,93,29.78,10.0,SSW,4.6,-,0.00,,Overcast,200,2013-02-03 20:21:00
11:53 AM,39.9,36.0,86,29.78,10.0,South,6.9,-,0.00,,Overcast,170,2013-02-03 20:53:00
12:11 PM,39.2,37.4,93,29.79,6.0,Variable,6.9,-,0.00,Rain,Light Rain,0,2013-02-03 21:11:00
12:30 PM,39.2,37.4,93,29.80,4.0,Calm,Calm,-,0.03,Rain,Light Rain,0,2013-02-03 21:30:00
12:41 PM,39.2,37.4,93,29.80,10.0,Calm,Calm,-,0.03,,Mostly Cloudy,0,2013-02-03 21:41:00
12:53 PM,39.9,37.0,89,29.80,10.0,Variable,4.6,-,0.03,Rain,Light Rain,0,2013-02-03 21:53:00
1:01 PM,39.2,37.4,93,29.80,10.0,SSW,5.8,-,0.00,Rain,Light Rain,200,2013-02-03 22:01:00
1:53 PM,39.0,37.9,96,29.82,10.0,WSW,5.8,-,0.00,,Mostly Cloudy,240,2013-02-03 22:53:00
2:53 PM,39.9,37.0,89,29.83,10.0,SW,3.5,-,N/A,,Scattered Clouds,230,2013-02-03 23:53:00
3:53 PM,37.9,36.0,93,29.85,10.0,South,4.6,-,0.01,,Mostly Cloudy,180,2013-02-04 00:53:00
4:02 PM,37.4,35.6,93,29.85,10.0,South,3.5,-,N/A,,Partly Cloudy,180,2013-02-04 01:02:00
4:45 PM,37.4,35.6,93,29.85,4.0,West,6.9,-,0.01,Rain,Rain,270,2013-02-04 01:45:00
4:53 PM,37.0,35.1,93,29.86,9.0,Calm,Calm,-,0.01,Rain,Light Rain,0,2013-02-04 01:53:00
5:21 PM,35.6,35.6,100,29.86,10.0,South,3.5,-,0.00,,Overcast,170,2013-02-04 02:21:00
5:53 PM,37.9,34.0,86,29.86,10.0,South,3.5,-,0.00,,Overcast,190,2013-02-04 02:53:00
6:53 PM,37.0,34.0,89,29.87,10.0,South,5.8,-,0.00,,Scattered Clouds,180,2013-02-04 03:53:00
7:45 PM,37.4,33.8,87,29.87,10.0,South,3.5,-,N/A,,Overcast,170,2013-02-04 04:45:00
7:53 PM,37.9,34.0,86,29.88,10.0,SSW,5.8,-,N/A,,Overcast,200,2013-02-04 04:53:00
8:36 PM,37.4,33.8,87,29.88,10.0,South,3.5,-,N/A,,Overcast,170,2013-02-04 05:36:00
8:53 PM,37.0,33.1,86,29.88,10.0,Variable,4.6,-,N/A,,Overcast,0,2013-02-04 05:53:00
9:35 PM,37.4,33.8,87,29.89,10.0,West,4.6,-,0.00,,Overcast,270,2013-02-04 06:35:00
9:53 PM,37.0,35.1,93,29.91,5.0,WSW,5.8,-,0.01,Rain,Light Rain,240,2013-02-04 06:53:00
10:40 PM,35.6,33.8,93,29.91,10.0,Calm,Calm,-,0.07,Rain,Light Rain,0,2013-02-04 07:40:00
10:53 PM,35.1,34.0,96,29.91,10.0,Calm,Calm,-,0.07,,Overcast,0,2013-02-04 07:53:00
11:10 PM,35.6,33.8,93,29.91,9.0,Calm,Calm,-,0.00,Rain,Light Rain,0,2013-02-04 08:10:00
11:29 PM,35.6,33.8,93,29.91,8.0,Calm,Calm,-,0.00,,Overcast,0,2013-02-04 08:29:00
11:53 PM,36.0,34.0,93,29.93,8.0,West,4.6,-,0.01,Rain,Light Rain,260,2013-02-04 08:53:00